This is the latest recevied weather packets stored in our database for station/object N8VDS-10. If no packets are shown the sender has not sent any weather packets the latest 10 day(s).
| Time | Temp. | Humidity | Pressure | Rain* | Wind** | Luminosity | Snow |
|---|---|---|---|---|---|---|---|
| 1777927486 | 23.89° C | 30% | 1002.8 hPa | 0 mm | - | 372 W/m² | - |
| 1777927185 | 24.44° C | 30% | 1002.8 hPa | 0 mm | - | 401 W/m² | - |
| 1777926883 | 24.44° C | 28% | 1002.9 hPa | 0 mm | - | 444 W/m² | - |
| 1777926578 | 24.44° C | 29% | 1002.7 hPa | 0 mm | - | 521 W/m² | - |
| 1777926275 | 24.44° C | 28% | 1003 hPa | 0 mm | - | 520 W/m² | - |
| 1777925972 | 25° C | 28% | 1003.1 hPa | 0 mm | - | 538 W/m² | - |
| 1777925669 | 24.44° C | 28% | 1003.2 hPa | 0 mm | - | 526 W/m² | - |
| 1777925367 | 25° C | 28% | 1003.4 hPa | 0 mm | - | 555 W/m² | - |
| 1777925064 | 24.44° C | 27% | 1003.3 hPa | 0 mm | - | 516 W/m² | - |
| 1777924760 | 25° C | 27% | 1003.1 hPa | 0 mm | - | 580 W/m² | - |
| 1777924456 | 24.44° C | 27% | 1003.1 hPa | 0 mm | - | 592 W/m² | - |
| 1777924153 | 23.89° C | 27% | 1003.3 hPa | 0 mm | - | 621 W/m² | - |
| 1777923849 | 24.44° C | 27% | 1003.5 hPa | 0 mm | - | 507 W/m² | - |
| 1777923545 | 24.44° C | 26% | 1003.4 hPa | 0 mm | - | 657 W/m² | - |
| 1777923242 | 23.89° C | 28% | 1003.4 hPa | 0 mm | - | 637 W/m² | - |
| 1777922941 | 23.89° C | 27% | 1003.6 hPa | 0 mm | - | 629 W/m² | - |
| 1777922638 | 24.44° C | 27% | 1003.6 hPa | 0 mm | - | 580 W/m² | - |
| 1777922336 | 23.89° C | 28% | 1003.6 hPa | 0 mm | - | 670 W/m² | - |
| 1777922034 | 23.89° C | 28% | 1003.6 hPa | 0 mm | - | 677 W/m² | - |
| 1777921729 | 23.89° C | 28% | 1003.4 hPa | 0 mm | - | 655 W/m² | - |
| 1777921425 | 23.89° C | 28% | 1003.6 hPa | 0 mm | - | 651 W/m² | - |
| 1777921122 | 23.89° C | 27% | 1003.7 hPa | 0 mm | - | 679 W/m² | - |
| 1777920819 | 23.89° C | 27% | 1003.4 hPa | 0 mm | - | 658 W/m² | - |
| 1777920515 | 23.89° C | 28% | 1003.7 hPa | 0 mm | - | 666 W/m² | - |
| 1777920211 | 23.89° C | 29% | 1004 hPa | 0 mm | - | 790 W/m² | - |
* Rain latest hour (hover to see other rain measurements)
** Current wind speed in m/s (hover to see current wind gust speed)